Location: Blangy-Tronville
(49.8790°N, 2.4226°E)
Time: 22:18:42
(UTC+00:00)

Cosmos 2026 Rocket - Pass Details

Date: 18 November 2025
Orbit: 937 x 1000 km, 82.9° (Epoch: 04 December)

Event Time Altitude Azimuth Distance (km) Brightness Sun altitude
Rises 18:12:37 0° 352° (N) 3,615 7.0 -20.6°
Reaches altitude 10° 18:15:08 10° 355° (N) 2,670 6.3 -21.0°
Maximum altitude 18:21:11 65° 77° (ENE) 1,040 3.8 -22.0°
Drops below altitude 10° 18:27:16 10° 160° (SSE) 2,684 6.1 -23.0°
Sets 18:29:48 0° 163° (SSE) 3,635 6.9 -23.4°
